星链-1972 (STARLINK-1972 )

导读

STARLINK-1972是美国太空探索技术公司Starlink卫星互联网星座的一颗卫星,于2021年2月16日发射入轨,属于该星座低轨卫星组网批次。它工作在近地轨道,承担卫星互联网信号中继传输任务,为全球范围提供高速低时延的宽带互联网接入服务,是星链星座大规模组网部署过程中的重要组成部分。

基本信息
目录编号:
47627
目录名称:
STARLINK-1972
国际标识:
2021-012H
轨道中心:
EARTH
卫星名称:
星链-1972
卫星全名:
星链-1972 (STARLINK-1972 )
卫星状态:
在轨 (已飞行2033 天)
发射日期:
2021-02-16 UTC
国别 :
美国 (US)
星等 :
--
该卫星已列入 空间交会检测服务 Space Conjunction Data Service (SCDS) ,当前飞行风险评估等级: 无高风险
轨道信息
数据来源 国际轨道数据 AOE轨道数据
星历时间 2026-09-11T14:00:02+0800
6小时前
查看轨道信息
2026-09-10T23:00:00+0800
21小时前
查看轨道信息
半长轴 6689.15km 6689.827km
偏心率 0.0004749 0.0004608
轨道倾角 53.040° 53.038°
近地点辐角 127.097° 123.734°
升交点赤经 133.840° 137.010°
平近点角 347.208° 18.100°
近地点 307.836km 308.607km
远地点 314.19km 314.773km
周期 90.744分钟 90.757分钟
每日圈数 15.868884 15.866476
详细信息
固有亮度:
5
最大亮度:
2.5
卫星平台:
Starlink V1.0
覆盖范围:
全球
运营商:
太空探索技术公司
运营商所在国:
美国
制造商(研发单位):
太空探索技术公司
制造商所在国:
美国
使用方式:
暂无
卫星简介
星链(Starlink)计划是由太空探索技术公司(SpaceX)提出的一个巨型低轨卫星互联网星座项目,计划在2019年至2024年间在太空搭建由约1.2万颗卫星组成的“星链”网络,其中1584颗将部署在地球上空550千米处的近地轨道,并从2020年开始工作。该卫星仍在工作。
2D轨道图
3D轨道图
轨道高度分析图
轨道倾角分析图
轨道综合分析图
查看轨道综合分析图
与全量物体交会距离演化趋势
与全量物体交会风险概率演化趋势